Mount Pleasant, MI

5:19 PM EST on January 20, 2017 (GMT -0500)
Mount Pleasant Municipal

Weather History for KMOP - June, 2013

Change the Weather History Date:

Wednesday, June 26, 2013

  Actual Average (KAMN) Record (KAMN)
Temperature  
Mean Temperature 73 °F -  
Max Temperature 85 °F 81 °F 98 °F (1988)
Min Temperature 61 °F 56 °F 42 °F (1986)
Cooling Degree Days 8    
Growing Degree Days 23 (Base 50)    
Moisture  
Dew Point 65 °F    
Average Humidity 80    
Maximum Humidity 96    
Minimum Humidity 50    
Precipitation  
Precipitation 0.99 in - - ()
Sea Level Pressure  
Sea Level Pressure 29.81 in    
Wind  
Wind Speed 2 mph (South)    
Max Wind Speed 12 mph    
Max Gust Speed 34 mph    
Visibility 7 miles    
Events Fog , Rain    
Averages and records for this station are not official NWS values.
T = Trace of Precipitation, MM = Missing Value Source: NWS Daily Summary

Daily Weather History Graph

Daily Weather History Graph

Search for Another Location

Airport or City:

Trip Planner

Search our weather history database for the weather conditions in past years. The results will help you decide how hot, cold, wet, or windy it might be!

Date:

Astronomy

Jun. 26, 2013 Rise Set
Actual Time 5:59 AM EDT 9:24 PM EDT
Civil Twilight 5:23 AM EDT 10:00 PM EDT
Nautical Twilight 4:36 AM EDT 10:47 PM EDT
Astronomical Twilight 3:37 AM EDT 11:46 PM EDT
Moon 11:38 PM EDT (6/26) 9:57 AM EDT (6/26)
Length of Visible Light 16h 37m
Length of Day
15h 25m
Waning Gibbous, 85% of the Moon is Illuminated
Jun 26
Waning Gibbous
Jun 30
Last Quarter
Jul 8
New
Jul 15
First Quarter
Jul 22
Full

Hourly Weather History & Observations

Time (EDT) Temp. Heat Index Dew Point Humidity Pressure Visibility Wind Dir Wind Speed Gust Speed Precip Events Conditions
12:17 AM 67.6 °F - 64.8 °F 90% 29.86 in 10.0 mi South 4.6 mph - N/A   Clear
12:37 AM 67.1 °F - 64.4 °F 91% 29.86 in 10.0 mi Calm Calm - N/A   Clear
12:57 AM 66.2 °F - 63.7 °F 92% 29.87 in 10.0 mi Calm Calm - N/A   Clear
1:17 AM 65.7 °F - 63.5 °F 93% 29.86 in 10.0 mi Calm Calm - N/A   Clear
1:37 AM 65.5 °F - 63.7 °F 94% 29.86 in 7.0 mi Calm Calm - N/A   Clear
1:57 AM 64.8 °F - 63.1 °F 94% 29.86 in 0.8 mi Calm Calm - N/A   Mist
2:17 AM 64.4 °F - 63.0 °F 95% 29.85 in 1.2 mi Calm Calm - N/A   Mist
2:37 AM 64.0 °F - 62.6 °F 95% 29.83 in 1.5 mi Calm Calm - N/A   Mist
2:57 AM 64.2 °F - 62.8 °F 95% 29.83 in 5.0 mi Calm Calm - N/A   Clear
3:17 AM 64.0 °F - 62.6 °F 95% 29.82 in 5.0 mi Calm Calm - N/A   Clear
3:37 AM 62.8 °F - 61.3 °F 95% 29.82 in 2.5 mi Calm Calm - N/A   Clear
3:57 AM 62.6 °F - 61.3 °F 96% 29.81 in 1.5 mi Calm Calm - N/A   Mist
4:17 AM 63.1 °F - 61.9 °F 96% 29.81 in 1.2 mi Calm Calm - N/A   Mist
4:37 AM 62.6 °F - 61.2 °F 95% 29.83 in 3.0 mi Calm Calm - N/A   Clear
4:57 AM 63.3 °F - 61.9 °F 95% 29.82 in 7.0 mi Calm Calm - N/A   Clear
5:17 AM 63.1 °F - 61.7 °F 95% 29.81 in 4.0 mi Calm Calm - N/A   Scattered Clouds
5:37 AM 61.5 °F - 60.3 °F 96% 29.81 in 1.0 mi Calm Calm - N/A   Mist
5:56 AM 61.3 °F - 60.1 °F 96% 29.81 in 2.5 mi Calm Calm - N/A   Clear
6:17 AM 62.1 °F - 60.8 °F 96% 29.82 in 7.0 mi Calm Calm - N/A   Clear
6:37 AM 61.7 °F - 60.3 °F 95% 29.82 in 0.5 mi Calm Calm - N/A Fog Fog
6:56 AM 62.4 °F - 61.2 °F 96% 29.83 in 1.0 mi Calm Calm - N/A   Mist
7:17 AM 64.9 °F - 63.7 °F 96% 29.83 in 7.0 mi Calm Calm - N/A   Clear
7:37 AM 66.6 °F - 65.3 °F 96% 29.83 in 10.0 mi Calm Calm - N/A   Clear
7:57 AM 67.8 °F - 65.8 °F 93% 29.83 in 10.0 mi Calm Calm - N/A   Clear
8:17 AM 68.4 °F - 66.2 °F 93% 29.83 in 3.0 mi West 4.6 mph - N/A   Scattered Clouds
8:36 AM 68.2 °F - 66.4 °F 94% 29.84 in 0.8 mi Calm Calm - N/A   Overcast
8:57 AM 68.9 °F - 66.7 °F 93% 29.84 in 1.8 mi West 3.5 mph - N/A   Overcast
9:17 AM 69.3 °F - 67.1 °F 93% 29.85 in 2.0 mi West 3.5 mph - N/A   Overcast
9:36 AM 69.8 °F - 67.3 °F 92% 29.86 in 3.0 mi Calm Calm - N/A   Overcast
9:57 AM 71.1 °F - 67.5 °F 88% 29.86 in 4.0 mi WSW 3.5 mph - N/A   Overcast
10:17 AM 73.6 °F - 67.8 °F 82% 29.86 in 5.0 mi West 3.5 mph - N/A   Haze
10:37 AM 73.4 °F - 67.3 °F 81% 29.85 in 5.0 mi Calm Calm - N/A   Haze
10:57 AM 75.2 °F - 66.6 °F 74% 29.84 in 7.0 mi Calm Calm - N/A   Mostly Cloudy
11:17 AM 76.1 °F - 67.5 °F 74% 29.84 in 7.0 mi SSW 3.5 mph - N/A   Mostly Cloudy
11:36 AM 76.5 °F - 66.4 °F 71% 29.84 in 10.0 mi Calm Calm - N/A   Mostly Cloudy
11:57 AM 77.5 °F - 66.0 °F 68% 29.84 in 10.0 mi Calm Calm - N/A   Scattered Clouds
12:17 PM 79.3 °F - 66.7 °F 65% 29.83 in 10.0 mi West 3.5 mph - N/A   Mostly Cloudy
12:37 PM 79.0 °F - 65.1 °F 62% 29.82 in 10.0 mi SSE 5.8 mph - N/A   Scattered Clouds
12:57 PM 80.2 °F 82.2 °F 65.5 °F 61% 29.83 in 10.0 mi Calm Calm - N/A   Clear
1:17 PM 81.1 °F 82.9 °F 65.1 °F 58% 29.82 in 10.0 mi South 4.6 mph - N/A   Scattered Clouds
1:37 PM 82.4 °F 84.1 °F 64.9 °F 55% 29.82 in 10.0 mi Calm Calm - N/A   Scattered Clouds
1:57 PM 83.1 °F 85.2 °F 66.0 °F 56% 29.81 in 10.0 mi SE 5.8 mph - N/A   Scattered Clouds
2:17 PM 83.3 °F 85.3 °F 65.5 °F 55% 29.80 in 10.0 mi East 5.8 mph - N/A   Scattered Clouds
2:37 PM 83.3 °F 85.1 °F 64.9 °F 54% 29.79 in 10.0 mi ESE 8.1 mph - N/A   Scattered Clouds
2:57 PM 83.8 °F 85.6 °F 65.3 °F 53% 29.79 in 10.0 mi ESE 5.8 mph - N/A   Clear
3:17 PM 84.2 °F 85.6 °F 64.4 °F 51% 29.79 in 10.0 mi Calm Calm - N/A   Clear
3:37 PM 84.2 °F 85.8 °F 64.9 °F 52% 29.79 in 10.0 mi SSE 3.5 mph - N/A   Scattered Clouds
3:57 PM 85.3 °F 86.8 °F 64.9 °F 50% 29.79 in 10.0 mi Calm Calm - N/A   Scattered Clouds
4:17 PM 85.5 °F 87.1 °F 64.8 °F 50% 29.79 in 10.0 mi SSE 3.5 mph - N/A   Clear
4:37 PM 84.9 °F 86.3 °F 64.4 °F 50% 29.77 in 10.0 mi ESE 6.9 mph - N/A   Clear
4:57 PM 85.3 °F 86.8 °F 64.9 °F 50% 29.77 in 10.0 mi ESE 8.1 mph - N/A   Clear
5:16 PM 84.0 °F 85.4 °F 63.9 °F 51% 29.77 in 10.0 mi SSE 8.1 mph - N/A   Scattered Clouds
5:37 PM 83.5 °F 84.7 °F 63.7 °F 51% 29.77 in 10.0 mi SSW 3.5 mph - N/A   Scattered Clouds
5:57 PM 84.4 °F 85.6 °F 63.7 °F 50% 29.76 in 10.0 mi SE 5.8 mph - N/A   Clear
6:17 PM 84.0 °F 85.6 °F 64.6 °F 52% 29.76 in 7.0 mi ESE 4.6 mph - N/A   Clear
6:37 PM 83.7 °F 84.9 °F 63.5 °F 51% 29.76 in 10.0 mi SE 3.5 mph - N/A   Clear
6:57 PM 83.7 °F 85.3 °F 64.8 °F 53% 29.76 in 10.0 mi East 6.9 mph - N/A   Mostly Cloudy
7:17 PM 75.0 °F - 67.1 °F 76% 29.77 in 0.5 mi WNW 6.9 mph 34.5 mph 0.55 in Rain Heavy Rain
7:37 PM 73.2 °F - 69.3 °F 87% 29.76 in 7.0 mi Calm Calm - 0.85 in Rain Rain
7:57 PM 73.4 °F - 70.7 °F 91% 29.76 in 3.0 mi SSE 11.5 mph 21.9 mph 0.95 in Rain Heavy Rain
8:17 PM 74.3 °F - 70.0 °F 86% 29.76 in 7.0 mi WSW 5.8 mph - 0.03 in Rain Light Rain
8:37 PM 73.8 °F - 69.1 °F 85% 29.76 in 10.0 mi Calm Calm - 0.04 in   Mostly Cloudy
8:56 PM 72.3 °F - 68.2 °F 87% 29.76 in 10.0 mi Calm Calm - 0.04 in   Clear
9:17 PM 72.1 °F - 68.9 °F 89% 29.76 in 10.0 mi Calm Calm - N/A   Clear
9:37 PM 71.6 °F - 69.1 °F 92% 29.77 in 7.0 mi Calm Calm - N/A   Clear
9:56 PM 71.6 °F - 69.6 °F 93% 29.77 in 7.0 mi Calm Calm - N/A   Scattered Clouds
10:17 PM 72.1 °F - 69.8 °F 92% 29.78 in 10.0 mi Calm Calm - N/A   Clear
10:37 PM 71.6 °F - 69.1 °F 92% 29.78 in 10.0 mi Calm Calm - N/A   Clear
10:57 PM 71.2 °F - 68.9 °F 92% 29.78 in 7.0 mi Calm Calm - N/A   Clear
11:17 PM 70.9 °F - 68.5 °F 92% 29.78 in 7.0 mi Calm Calm - N/A   Clear
11:37 PM 71.1 °F - 68.5 °F 92% 29.78 in 7.0 mi Calm Calm - N/A   Clear
11:57 PM 71.1 °F - 68.9 °F 93% 29.76 in 7.0 mi Calm Calm - N/A   Scattered Clouds